Location: Bucquoy
(50.1391°N, 2.7097°E)
Time: 09:22:40
(UTC+00:00)

SL-27 R/B - Pass Details

Date: 06 May 2021
Orbit: 417 x 468 km, 74.7° (Epoch: 21 June)

Event Time Altitude Azimuth Distance (km) Brightness Sun altitude
Rises 01:02:31 0° 335° (NNW) 2,379 6.8 -21.2°
Reaches altitude 10° 01:04:35 10° 333° (NNW) 1,511 5.6 -21.1°
Enters shadow 01:07:12 50° 310° (NW) 543 2.8 -20.9°
